Date,TemperatureHighF,TemperatureAvgF,TemperatureLowF,DewpointHighF,DewpointAvgF,DewpointLowF,HumidityHigh,HumidityAvg,HumidityLow,PressureMaxIn,PressureMinIn,WindSpeedMaxMPH,WindSpeedAvgMPH,GustSpeedMaxMPH,PrecipitationSumIn
2013-12-1,30,25,24,17,14,11,68,62,57,29.83,29.75,6,2,13,0.00
2013-12-2,38,33,29,31,29,28,94,85,73,29.56,29.45,2,0,3,0.01
2013-12-3,36,32,28,30,27,20,91,80,70,29.55,29.47,7,1,8,0.00
2013-12-4,32,29,24,27,22,17,84,75,70,29.70,29.55,4,1,6,0.01
2013-12-5,51,46,35,50,43,30,99,89,82,29.68,29.44,7,2,9,0.00
2013-12-6,46,33,29,45,30,21,99,87,72,29.67,29.48,4,1,11,0.71
2013-12-7,28,24,20,20,12,6,74,61,44,29.95,29.65,9,4,16,0.01
2013-12-8,22,19,16,8,6,2,61,55,48,30.06,29.95,6,1,9,0.00
2013-12-9,34,27,21,31,19,4,93,72,46,29.93,29.41,8,2,12,0.00
2013-12-10,31,23,15,25,12,-3,81,64,41,29.45,29.32,7,2,11,0.00
2013-12-11,15,14,13,7,2,-2,70,59,47,29.59,29.46,4,1,9,0.00
2013-12-13,0,-3,-5,7,-13,-17,55,47,54,29.96,29.93,2,0,4,0.00
2013-12-14,12,0,-6,3,-12,-18,69,54,41,30.16,29.71,6,1,8,0.00
2013-12-15,22,17,11,15,10,4,83,75,69,29.69,29.21,11,2,14,0.00
2013-12-16,14,8,-3,9,-5,-16,80,57,39,29.79,29.35,8,2,11,0.00
2013-12-17,18,8,-5,11,-3,-17,75,60,38,29.82,29.62,4,1,5,0.00
2013-12-18,22,19,12,16,12,7,82,76,67,29.64,29.57,6,1,8,0.00
2013-12-28,34,28,0,28,26,15,81,67,80,29.93,0.00,4,1,9,1.31
2013-12-29,40,34,30,31,28,25,97,79,56,29.87,29.49,4,1,6,0.38
2013-12-30,32,9,0,32,-3,-17,97,58,41,30.00,29.48,15,4,24,0.04
2013-12-31,140,6,1,5,-6,-20,73,55,35,29.98,29.77,10,0,15,0.00